{"data":{"norad_id":39418,"intl_designator":"2013-066C","name":"SKYSAT-A","alt_names":[],"object_type":"PAYLOAD","status":"ACTIVE","operator":null,"country":"US","launch_date":"2013-11-21","launch_site_code":"DLS","launch_vehicle":null,"mission":null,"orbit_class":"UNKNOWN","rcs_meters":0.3086,"size_class":null,"mass_kg":null,"dimensions":null,"purposes":["earth_obs"],"wikipedia_slug":null,"has_3d_model":false,"image_url":null,"decayed_at":null,"tle_current":{"epoch":"2026-09-20T01:59:54.995424Z","epoch_age_seconds":50501,"freshness":"FRESH","line1":"1 39418U 13066C   26263.08327541  .00001808  00000+0  10433-3 0  9990","line2":"2 39418  97.3721 309.4352 0020809 350.3996   9.6835 15.13419610702838","mean_motion":15.1341961,"eccentricity":0.0020809,"inclination_deg":97.3721,"raan_deg":309.4352,"arg_perigee_deg":350.3996,"mean_anomaly_deg":9.6835,"bstar":0.00010433,"rev_number":70283,"period_min":95.148760494784,"perigee_km":511.41430130649,"apogee_km":540.14702583875,"semimajor_km":6903.9176635726,"source":"CELESTRAK","updated_at":"2026-09-20T09:00:34.706520Z"}}}